This is the latest recevied weather packets stored in our database for station/object K5NWZ. If no packets are shown the sender has not sent any weather packets the latest 10 day(s).
| Time | Temp. | Humidity | Pressure | Rain* | Wind** | Luminosity | Snow |
|---|---|---|---|---|---|---|---|
| 1777557104 | 6.11° C | 58% | 1030.6 hPa | 0 mm | - | 57 W/m² | - |
| 1777556799 | 6.11° C | 56% | 1030.5 hPa | 0 mm | - | 55 W/m² | - |
| 1777556497 | 6.11° C | 58% | 1030.6 hPa | 0 mm | - | 54 W/m² | - |
| 1777556196 | 6.11° C | 58% | 1030.6 hPa | 0 mm | - | 53 W/m² | - |
| 1777555892 | 6.11° C | 59% | 1030.6 hPa | 0 mm | - | 47 W/m² | - |
| 1777555588 | 6.11° C | 58% | 1030.4 hPa | 0 mm | - | 36 W/m² | - |
| 1777555285 | 6.11° C | 58% | 1030.6 hPa | 0 mm | - | 29 W/m² | - |
| 1777554981 | 6.11° C | 57% | 1030.6 hPa | 0 mm | - | 30 W/m² | - |
| 1777554678 | 6.11° C | 58% | 1030.4 hPa | 0 mm | - | 27 W/m² | - |
| 1777554376 | 6.11° C | 58% | 1030.3 hPa | 0 mm | - | 25 W/m² | - |
| 1777554072 | 6.67° C | 56% | 1030.3 hPa | 0 mm | - | 23 W/m² | - |
| 1777553769 | 6.67° C | 55% | 1030.1 hPa | 0 mm | - | 17 W/m² | - |
| 1777553466 | 6.67° C | 55% | 1029.9 hPa | 0 mm | - | 12 W/m² | - |
| 1777553161 | 6.67° C | 55% | 1030.1 hPa | 0 mm | - | 9 W/m² | - |
| 1777552856 | 6.67° C | 54% | 1029.9 hPa | 0 mm | - | 9 W/m² | - |
| 1777552551 | 6.67° C | 53% | 1029.9 hPa | 0 mm | - | 9 W/m² | - |
| 1777552248 | 6.67° C | 54% | 1030.1 hPa | 0 mm | - | 7 W/m² | - |
| 1777551945 | 6.67° C | 53% | 1029.9 hPa | 0 mm | - | 6 W/m² | - |
| 1777551642 | 6.67° C | 54% | 1029.7 hPa | 0 mm | - | 5 W/m² | - |
| 1777551340 | 6.67° C | 53% | 1029.8 hPa | 0 mm | - | 4 W/m² | - |
| 1777551036 | 6.67° C | 53% | 1029.9 hPa | 0 mm | - | 3 W/m² | - |
| 1777550733 | 6.67° C | 53% | 1030.2 hPa | 0 mm | - | 3 W/m² | - |
| 1777550429 | 6.67° C | 54% | 1029.6 hPa | 0 mm | - | 2 W/m² | - |
| 1777550126 | 6.67° C | 54% | 1029.8 hPa | 0 mm | - | 1 W/m² | - |
| 1777549822 | 6.67° C | 53% | 1029.7 hPa | 0 mm | - | 0 W/m² | - |
* Rain latest hour (hover to see other rain measurements)
** Current wind speed in m/s (hover to see current wind gust speed)